Regional Weather Roundup
Issued by NWS

Home | Current Version | Previous Version | Graphics & Text | Print | Product List | Glossary On
Versions: 1 2 3 4 5 6 7 8 9 10 11 12 13 14 15 16 17 18 19 20 21 22 23 24 25 26 27 28 29 30 31 32 33 34 35 36 37 38 39 40 41 42 43 44 45 46 47 48 49 50
000
ASUS43 KLSX 271307
RWRMO

WEATHER SUMMARY FOR MISSOURI
NATIONAL WEATHER SERVICE SPRINGFIELD MO
800 AM CDT WED AUG 27 2014

NOTE: "FAIR" INDICATES FEW OR NO CLOUDS BELOW 12,000 FEET WITH NO
       SIGNIFICANT WEATHER AND/OR OBSTRUCTIONS TO VISIBILITY.
       CURRENT SKY AND/OR WEATHER CONDITIONS ARE NOT AVAILABLE FOR
       CHILLICOTHE AND FARMINGTON.

MOZ001>031-035>038-043-044-053-054-271400-
...NORTHERN AND WESTERN MISSOURI...

CITY           SKY/WX    TMP DP  RH WIND       PRES   REMARKS
KANSAS CTY INT CLOUDY    71  66  84 N17G24    30.14R
KANSAS C DTWN  PTSUNNY   77  71  82 N7        30.11R
LEE`S SUMMIT   MOSUNNY   74  68  81 S5        30.10R
ST JOSEPH      LGT RAIN  69  66  90 E17       30.11F
CHILLICOTHE      N/A     71  69  93 N6        30.16R
KIRKSVILLE     CLOUDY    70  67  90 NE7       30.14R

$$
MOZ066>068-077>081-088>096-101>105-271400-
...SOUTHWEST MISSOURI...

CITY           SKY/WX    TMP DP  RH WIND       PRES   REMARKS
SPRINGFIELD    SUNNY     76  68  76 SE7       30.12R
JOPLIN         SUNNY     77  69  76 S6        30.11R

$$
MOZ032>034-039>042-045>050-055>058-069>072-271400-
...CENTRAL MISSOURI...

CITY           SKY/WX    TMP DP  RH WIND       PRES   REMARKS
COLUMBIA       SUNNY     74  73  97 SE5       30.10R
JEFFERSON CITY SUNNY     73  71  93 SE5       30.09R
ROLLA          SUNNY     75  69  81 S5        30.10R
SEDALIA        SUNNY     75  70  84 CALM      30.10R HAZE
WHITEMAN AFB   MOSUNNY   74  51  43 S5        30.09R
OSAGE BEACH    SUNNY     72  66  83 CALM      30.10R

$$
MOZ051-052-059>065-271400-
...EAST CENTRAL MISSOURI...

CITY           SKY/WX    TMP DP  RH WIND       PRES   REMARKS
ST LOUIS INTL  MOSUNNY   77  71  82 E8        30.11R
SPIRIT OF STL  MOSUNNY   75  71  87 CALM      30.08R
ST CHARLES     SUNNY     75  71  87 E8        30.10R

$$
MOZ072>076-082>087-097>100-106>115-271400-
...SOUTH CENTRAL AND SOUTHEAST MISSOURI...

CITY           SKY/WX    TMP DP  RH WIND       PRES   REMARKS
CAPE GIRARDEAU MOSUNNY   74  73  97 CALM      30.08S FOG
FARMINGTON     SUNNY     72  70  94 CALM      30.13S
POPLAR BLUFF   SUNNY     77  70  79 CALM      30.08R
WEST PLAINS    SUNNY     74  69  85 CALM      30.14R

$$


USA.gov is the U.S. government's official web portal to all federal, state and local government web resources and services.